Voltar ao catálogo

STARLINK-5757

AtivoComunicaçõesVLEO
NORAD 55580·PAYLOAD·🇺🇸 United States

Lançado Feb 12, 2023 de Cape Canaveral Space Force Station

Loading…

Próximas Passagens (próximas 24 horas)

TLE

AtualizadoSource: CelesTrak SupGP

Época: Sep 15, 2026, 02:14 UTC

1 55580C 23020M   26258.09354167  .00005525  00000+0  20015-3 0  2583
2 55580  43.0015 349.8972 0001642 262.9652 170.7087 15.27570114    19

Acompanhe STARLINK-5757 em tempo real com AllMySat

Download on the App Store